Location: Fort Wayne
(41.1310°N, 85.1290°W)
Time: 11:40:10
(UTC-04:00)

Tiros 1 despin weight - Visible Passes

Search period start: 27 June 2017 00:00
Search period end: 07 July 2017 00:00
Orbit: 595 x 643 km, 48.2° (Epoch: 26 June)

Date Brightness Start Highest point End Pass type
(mag) Time Alt. Az. Time Alt. Az. Time Alt. Az.
27 Jun ? 23:05:39 10° WNW 23:09:32 30° SW 23:11:08 23° S visible
28 Jun ? 23:23:36 10° W 23:26:13 15° SW 23:27:15 14° SSW visible
29 Jun ? 21:57:53 10° WNW 22:02:06 43° SW 22:06:16 10° SSE visible
30 Jun ? 22:15:23 10° W 22:18:51 22° SW 22:22:18 10° S visible
01 Jul ? 22:34:15 10° WSW 22:35:28 11° SW 22:36:42 10° SSW visible
